GW4275 Weather Reports


Display with metric or nautical units.
time (UTC)temp
F
wind
direction
speed
MPH
gust
MPH
rain 1hr
in
rain 24hr
in
rain mn
in
humidity
%
barometer
mb
20260504050507 49 331 0.0 2.0 0.00 0.00 0.00 56 1011.1
20260504050024 50 330 0.0 2.0 0.00 0.00 0.00 55 1011.2
20260504045506 50 331 0.0 2.0 0.00 0.00 0.00 54 1011.3
20260504045005 50 333 0.0 2.0 0.00 0.00 0.00 54 1011.2
20260504044512 50 333 0.0 2.0 0.00 0.00 0.00 53 1011.2
20260504044003 50 333 0.0 2.0 0.00 0.00 0.00 54 1011.2
20260504043504 50 333 0.0 2.0 0.00 0.00 0.00 53 1011.2
20260504043012 49 333 0.0 2.0 0.00 0.00 0.00 58 1011.2
20260504042506 50 333 0.0 2.0 0.00 0.00 0.00 57 1011.2
20260504042004 50 333 0.0 2.0 0.00 0.00 0.00 55 1011.1
20260504041515 50 333 0.0 2.0 0.00 0.00 0.00 57 1011.1
20260504041006 51 333 0.0 2.0 0.00 0.00 0.00 56 1011.2
20260504040507 51 333 0.0 2.0 0.00 0.00 0.00 55 1011.2
20260504040022 51 333 0.0 2.0 0.00 0.00 0.00 54 1011.2
20260504035507 51 333 0.0 2.0 0.00 0.00 0.00 55 1011.2
20260504035007 51 331 0.0 2.0 0.00 0.00 0.00 56 1011.2
20260504034526 51 331 0.0 2.0 0.00 0.00 0.00 53 1011.2
20260504034010 51 313 0.0 2.0 0.00 0.00 0.00 55 1011.3
20260504033504 51 312 0.0 2.0 0.00 0.00 0.00 57 1011.4
20260504033007 51 312 0.0 2.0 0.00 0.00 0.00 55 1011.5
20260504032503 51 312 0.0 2.0 0.00 0.00 0.00 55 1011.5
20260504032003 51 312 0.0 2.0 0.00 0.00 0.00 56 1011.6
20260504031513 52 306 0.0 2.0 0.00 0.00 0.00 55 1011.6
20260504031002 52 306 0.0 2.0 0.00 0.00 0.00 55 1011.6
20260504030506 52 307 0.0 2.0 0.00 0.00 0.00 56 1011.5
20260504030022 52 306 0.0 2.0 0.00 0.00 0.00 58 1011.5
20260504025507 52 306 0.0 2.0 0.00 0.00 0.00 52 1011.5
20260504025009 52 306 0.0 2.0 0.00 0.00 0.00 54 1011.6
20260504024525 53 306 0.0 2.0 0.00 0.00 0.00 53 1011.6
20260504024008 53 306 0.0 2.0 0.00 0.00 0.00 49 1011.6
20260504023509 53 306 0.0 0.0 0.00 0.00 0.00 47 1011.7
20260504023025 53 306 0.0 2.0 0.00 0.00 0.00 47 1011.7
20260504022510 53 306 0.0 2.0 0.00 0.00 0.00 47 1011.8
20260504022004 53 306 0.0 2.0 0.00 0.00 0.00 47 1011.8
20260504021513 53 323 0.0 2.0 0.00 0.00 0.00 47 1011.8
20260504021003 53 323 0.0 2.0 0.00 0.00 0.00 51 1011.9
20260504020504 53 322 0.0 1.0 0.00 0.00 0.00 48 1011.9
20260504020020 53 322 0.0 1.0 0.00 0.00 0.00 48 1011.9
20260504015504 53 322 0.0 1.0 0.00 0.00 0.00 49 1011.8
20260504015005 53 322 0.0 0.0 0.00 0.00 0.00 48 1011.8
20260504014522 53 322 0.0 2.0 0.00 0.00 0.00 49 1011.8
20260504014009 54 322 0.0 2.0 0.00 0.00 0.00 48 1011.7
20260504013513 54 323 0.0 3.0 0.00 0.00 0.00 48 1011.6
20260504013030 54 271 0.0 3.0 0.00 0.00 0.00 46 1011.7
20260504012509 54 306 0.0 4.0 0.00 0.00 0.00 45 1011.8
20260504012006 54 265 0.0 5.0 0.00 0.00 0.00 45 1011.8
20260504011527 55 57 1.0 5.0 0.00 0.00 0.00 45 1012.0
20260504011009 55 280 1.0 8.0 0.00 0.00 0.00 44 1012.0
20260504010503 54 275 1.0 8.0 0.00 0.00 0.00 45 1012.0
20260504010012 54 17 0.0 2.0 0.00 0.00 0.00 46 1011.9
20260504005503 54 105 1.0 2.0 0.00 0.00 0.00 45 1011.7
20260504005006 55 314 0.0 2.0 0.00 0.00 0.00 45 1011.6
20260504004533 55 65 0.0 2.0 0.00 0.00 0.00 44 1011.4
20260504004005 55 128 0.0 5.0 0.00 0.00 0.00 43 1011.4
20260504003502 55 146 0.0 5.0 0.00 0.00 0.00 43 1011.4
20260504003004 55 225 1.0 3.0 0.00 0.00 0.00 41 1011.2
20260504002502 55 51 0.0 7.0 0.00 0.00 0.00 43 1011.1
20260504002003 55 55 0.0 7.0 0.00 0.00 0.00 44 1011.0
20260504001512 55 133 2.0 6.0 0.00 0.00 0.00 42 1010.7
20260504001002 55 57 0.0 4.0 0.00 0.00 0.00 44 1011.0
20260504000504 55 144 1.0 4.0 0.00 0.00 0.00 44 1011.0
20260504000011 55 123 1.0 4.0 0.00 0.00 0.00 45 1011.2
20260503235502 55 152 1.0 2.0 0.00 0.00 0.00 46 1011.3
20260503235005 55 317 0.0 3.0 0.00 0.00 0.00 44 1011.2
20260503234518 55 289 0.0 6.0 0.00 0.00 0.00 44 1011.3
20260503234006 55 227 1.0 6.0 0.00 0.00 0.00 42 1011.5
20260503233509 55 173 1.0 5.0 0.00 0.00 0.00 43 1011.3
20260503233004 55 302 0.0 2.0 0.00 0.00 0.00 44 1011.3
20260503232502 55 279 0.0 2.0 0.00 0.00 0.00 46 1011.0
20260503232002 55 270 0.0 3.0 0.00 0.00 0.00 43 1011.0
20260503231506 55 106 0.0 3.0 0.00 0.00 0.00 43 1010.8
20260503231004 55 201 1.0 2.0 0.00 0.00 0.00 44 1010.8
20260503230503 55 122 0.0 2.0 0.00 0.00 0.00 45 1010.8
20260503230010 56 122 0.0 2.0 0.00 0.00 0.00 44 1010.6
20260503225503 56 126 0.0 2.0 0.00 0.00 0.00 43 1010.6
20260503225003 56 126 0.0 2.0 0.00 0.00 0.00 43 1010.5
20260503224511 56 126 0.0 2.0 0.00 0.00 0.00 48 1010.6
20260503224005 56 126 0.0 2.0 0.00 0.00 0.00 41 1010.6
20260503223508 56 126 0.0 2.0 0.00 0.00 0.00 42 1010.5
20260503223016 55 126 0.0 2.0 0.00 0.00 0.00 42 1010.6
20260503222507 55 126 0.0 2.0 0.00 0.00 0.00 40 1010.6
20260503222007 55 107 0.0 2.0 0.00 0.00 0.00 43 1010.7
20260503221503 55 117 0.0 2.0 0.00 0.00 0.00 42 1010.7
20260503221002 56 121 0.0 2.0 0.00 0.00 0.00 43 1010.7
20260503220502 56 122 0.0 2.0 0.00 0.00 0.00 40 1010.7
20260503220019 56 122 0.0 2.0 0.00 0.00 0.00 39 1010.8
20260503215502 56 26 0.0 2.0 0.00 0.00 0.00 38 1010.9
20260503215003 56 26 0.0 2.0 0.00 0.00 0.00 39 1010.9
20260503214520 56 165 0.0 2.0 0.00 0.00 0.00 40 1010.9
20260503214003 56 174 0.0 2.0 0.00 0.00 0.00 39 1010.9
20260503213502 57 136 0.0 2.0 0.00 0.00 0.00 38 1010.9
20260503213028 57 171 1.0 2.0 0.00 0.00 0.00 38 1010.9
20260503212507 57 270 0.0 2.0 0.00 0.00 0.00 38 1010.9
20260503212008 57 271 0.0 2.0 0.00 0.00 0.00 39 1010.9
20260503211521 57 352 0.0 2.0 0.00 0.00 0.00 39 1010.9
20260503211006 57 250 0.0 2.0 0.00 0.00 0.00 40 1010.9
20260503210509 57 30 0.0 2.0 0.00 0.00 0.00 38 1011.0
20260503210011 57 179 0.0 2.0 0.00 0.00 0.00 38 1011.0
20260503205502 57 279 0.0 2.0 0.00 0.00 0.00 39 1011.2
20260503205005 56 327 0.0 2.0 0.00 0.00 0.00 40 1011.3
20260503204518 56 345 0.0 2.0 0.00 0.00 0.00 40 1011.2
20260503204003 55 119 0.0 2.0 0.00 0.00 0.00 40 1011.3
20260503203505 55 145 0.0 2.0 0.00 0.00 0.00 43 1011.4
20260503203015 55 319 0.0 2.0 0.00 0.00 0.00 40 1011.5
20260503202511 55 136 0.0 2.0 0.00 0.00 0.00 42 1011.5
20260503202008 55 63 0.0 2.0 0.00 0.00 0.00 42 1011.5
20260503201518 55 350 0.0 2.0 0.00 0.00 0.00 43 1011.6
20260503201007 55 37 0.0 3.0 0.00 0.00 0.00 43 1011.6
20260503200506 55 138 1.0 3.0 0.00 0.00 0.00 40 1011.6
20260503200021 56 284 0.0 2.0 0.00 0.00 0.00 39 1011.7
20260503195510 57 329 1.0 5.0 0.00 0.00 0.00 39 1011.7
20260503195009 57 209 0.0 4.0 0.00 0.00 0.00 39 1011.7
20260503194507 57 138 1.0 4.0 0.00 0.00 0.00 42 1011.7
20260503194002 57 281 0.0 2.0 0.00 0.00 0.00 40 1011.8
20260503193503 56 338 1.0 2.0 0.00 0.00 0.00 40 1011.9
20260503193011 55 338 0.0 2.0 0.00 0.00 0.00 40 1012.0
20260503192507 55 315 0.0 4.0 0.00 0.00 0.00 39 1012.1
20260503192007 55 273 1.0 4.0 0.00 0.00 0.00 40 1012.1
20260503191514 54 279 0.0 2.0 0.00 0.00 0.00 39 1012.1
20260503191007 54 28 0.0 3.0 0.00 0.00 0.00 39 1012.1
20260503190507 54 247 1.0 3.0 0.00 0.00 0.00 38 1012.1
20260503190031 54 271 0.0 2.0 0.00 0.00 0.00 36 1012.1
20260503185508 55 109 0.0 3.0 0.00 0.00 0.00 36 1012.2
20260503185008 56 162 1.0 3.0 0.00 0.00 0.00 36 1012.3
20260503184526 55 336 0.0 2.0 0.00 0.00 0.00 37 1012.3
20260503184009 56 319 0.0 2.0 0.00 0.00 0.00 38 1012.3
20260503183509 55 348 0.0 2.0 0.00 0.00 0.00 37 1012.3
20260503183008 55 342 0.0 2.0 0.00 0.00 0.00 37 1012.4
20260503182503 54 204 0.0 3.0 0.00 0.00 0.00 37 1012.5
20260503182006 55 344 0.0 3.0 0.00 0.00 0.00 36 1012.7
20260503181531 56 268 0.0 2.0 0.00 0.00 0.00 38 1012.5
20260503181006 56 17 0.0 2.0 0.00 0.00 0.00 43 1012.5
20260503180505 54 300 0.0 2.0 0.00 0.00 0.00 38 1012.5
20260503180032 53 333 1.0 4.0 0.00 0.00 0.00 38 1012.6
20260503175507 54 342 1.0 4.0 0.00 0.00 0.00 38 1012.7
20260503175007 54 42 1.0 2.0 0.00 0.00 0.00 38 1012.8
20260503174522 54 260 0.0 4.0 0.00 0.00 0.00 38 1012.9
20260503174011 55 360 1.0 4.0 0.00 0.00 0.00 39 1012.9
20260503173508 54 101 0.0 2.0 0.00 0.00 0.00 40 1013.0
20260503173026 54 212 0.0 2.0 0.00 0.00 0.00 40 1013.1
20260503172512 55 306 1.0 2.0 0.00 0.00 0.00 38 1013.2
20260503172010 54 15 1.0 2.0 0.00 0.00 0.00 37 1013.2
20260503171521 55 264 1.0 2.0 0.00 0.00 0.00 41 1013.3
20260503171005 54 290 0.0 2.0 0.00 0.00 0.00 41 1013.2
20260503170505 54 26 0.0 2.0 0.00 0.00 0.00 40 1013.2
20260503151002 48 11 1.0 4.0 0.00 0.00 0.00 42 1014.9
20260503150502 48 296 1.0 4.0 0.00 0.00 0.00 44 1015.0
20260503131003 44 18 1.0 2.0 0.00 0.00 0.00 49 1015.0
20260503130502 44 239 0.0 3.0 0.00 0.00 0.00 51 1015.0
20260503110516 0 0.0 0.0 0.00 0.00 0.00 1014.7
20260503090512 0 0.0 0.0 0.00 0.00 0.00 1014.3
20260503081530 0 0.0 0.0 0.00 0.00 0.00 1014.0
20260503081014 0 0.0 0.0 0.00 0.00 0.00 1014.1
20260503080512 0 0.0 0.0 0.00 0.00 0.00 1014.1
20260503072512 0 0.0 0.0 0.00 0.00 0.00 1014.1
20260503072008 39 312 0.0 0.0 0.00 0.00 0.00 1014.2
20260503071525 39 312 0.0 0.0 0.00 0.00 0.00 77 1014.2
20260503071007 39 312 0.0 0.0 0.00 0.00 0.00 78 1014.2
20260503070508 39 312 0.0 0.0 0.00 0.00 0.00 77 1014.2
20260503055002 40 298 0.0 1.0 0.00 0.00 0.00 75 1014.6
20260503054513 40 298 0.0 2.0 0.00 0.00 0.00 74 1014.6
20260503054003 40 298 0.0 2.0 0.00 0.00 0.00 74 1014.6
20260503053503 39 298 0.0 2.0 0.00 0.00 0.00 74 1014.6
20260503053014 39 298 0.0 2.0 0.00 0.00 0.00 75 1014.7